Simultaneous Nadir Overpasses (SNOs) Predictions

Prediction of SNOs between GOES-15 and NOAA-20 Satellite Orbit:

Table of predicted SNOs for the next 14.0 days since TLE Epoch: 3/12/2022
Index Date Time (GOES-15) GOES-15 Lat,Lon NOAA-20 Lat,Lon Distance(km) Time Diff (sec)
1 03/12/2022 09:52:52 0.07,-127.87 -0.09,-127.27 68.13 80
2 03/14/2022 21:58:46 -0.07,-127.95 -0.10,-128.05 11.30 80
3 03/17/2022 10:01:52 0.08,-128.04 0.25,-128.79 86.40 80
4 03/18/2022 09:40:28 0.08,-128.07 -0.77,-124.27 433.01 80
5 03/19/2022 22:05:06 -0.08,-128.11 -0.43,-129.57 167.15 80
6 03/20/2022 21:43:42 -0.08,-128.14 0.60,-125.04 352.05 80
7 03/22/2022 10:08:12 0.08,-128.18 0.58,-130.32 243.88 80
8 03/23/2022 09:46:48 0.08,-128.20 -0.45,-125.79 274.66 80
9 03/24/2022 22:11:25 -0.09,-128.23 -0.74,-131.09 327.15 80
10 03/25/2022 21:50:02 -0.09,-128.24 0.29,-126.57 191.12 80
